sat.trackr.live / text

‹ back to catalog

STARLINK-3698

NORAD 52108 · 2022-029W

PAYLOAD ACTIVE UNKNOWN

§ Identity

Operator
Country
US
Launch date
2022-03-19
Launch site
AFETR
Launch vehicle
Mass (kg)
RCS (m²)

Purposes: comms

External: N2YO · Heavens-Above · Gunter

§ Orbital elements

Epoch: 2026-09-20T01:05:05.160768Z

Period
93.90 min
Inclination
53.1581°
Eccentricity
0.0001603
Mean motion
15.33549398 rev/d
Perigee alt
464.1 km
Apogee alt
466.3 km
Semi-major
6,843.4 km
B*
4.2048e-5
RAAN
271.9116°
Arg perigee
85.7155°
Mean anomaly
274.4030°
Rev number
25,032

§ Raw data

STARLINK-36981 52108U 22029W   26263.04519862  .00001010  00000+0  42048-4 0  99982 52108  53.1581 271.9116 0001603  85.7155 274.4030 15.33549398250321

JSON: /api/v1/satellites/52108 · /tle

For live sub-satellite position, see the globe view (requires WebGL).

§ Visibility from observer

Set your observer location to see the next 7 days of passes ≥ 10°. The values pass through the URL so the page stays shareable.

No JS? Fill the form by hand. The geolocation button needs JavaScript.